Location: Gammelsbach
(49.5261°N, 8.9630°E)
Time: 05:32:06
(UTC+00:00)

Meteor 1-23 Rocket - Pass Details

Date: 17 June 2025
Orbit: 838 x 885 km, 81.3° (Epoch: 12 July)

Event Time Altitude Azimuth Distance (km) Brightness Sun altitude
Exits shadow 21:07:41 - 193° (SSW) 3,068 6.7 -10.9°
Reaches altitude 10° 21:09:16 10° 194° (SSW) 2,453 6.2 -11.1°
Maximum altitude 21:14:50 81° 282° (WNW) 863 4.3 -11.5°
Drops below altitude 10° 21:20:31 10° 10° (N) 2,495 7.4 -12.0°
Sets 21:22:58 0° 12° (NNE) 3,442 8.2 -12.2°
